Weather History for Whitefield, NH

Change the Weather History Date:

Friday, January 31, 2014

  Actual Average Record
Temperature  
Mean Temperature 22 °F -  
Max Temperature 33 °F 25 °F 57 °F (2013)
Min Temperature 10 °F 1 °F -22 °F (1999)
Degree Days  
Heating Degree Days 44    
Moisture  
Dew Point 11 °F    
Average Humidity 61    
Maximum Humidity 84    
Minimum Humidity 38    
Precipitation  
Precipitation 0.00 in - - ()
Sea Level Pressure  
Sea Level Pressure 30.03 in    
Wind  
Wind Speed 2 mph (WSW)    
Max Wind Speed 10 mph    
Max Gust Speed 16 mph    
Visibility 10 miles    
Events      
Averages and records for this station are not official NWS values.
T = Trace of Precipitation, MM = Missing Value Source: NWS Daily Summary

Daily Weather History Graph

Daily Weather History Graph

Search for Another Location

Airport:

Trip Planner

Search our weather history database for the weather conditions in past years. The results will help you decide how hot, cold, wet, or windy it might be!

Date:

Astronomy

Jan. 31, 2014 Rise Set
Actual Time 7:05 AM EST 4:54 PM EST
Civil Twilight 6:34 AM EST 5:25 PM EST
Nautical Twilight 5:59 AM EST 6:00 PM EST
Astronomical Twilight 5:25 AM EST 6:34 PM EST
Moon 7:09 AM EST (1/31) 6:19 PM EST (1/31)
Length of Visible Light 10h 50m
Length of Day
9h 48m
New Moon, 1% of the Moon is Illuminated
Jan 31
New Moon
Feb 6
First Quarter
Feb 14
Full
Feb 22
Last Quarter
Mar 1
New

Hourly Weather History & Observations

Time (EST) Temp. Windchill Dew Point Humidity Pressure Visibility Wind Dir Wind Speed Gust Speed Precip Events Conditions
12:52 AM 10.9 °F - 5.0 °F 77% 30.01 in 10.0 mi Calm Calm - N/A   Clear
1:52 AM 12.9 °F 6.9 °F 6.1 °F 74% 29.99 in 8.0 mi SE 3.5 mph - N/A   Partly Cloudy
2:52 AM 14.0 °F 3.9 °F 7.0 °F 74% 29.97 in 10.0 mi WNW 6.9 mph - N/A   Overcast
3:52 AM 16.0 °F - 8.1 °F 71% 29.96 in 10.0 mi Calm Calm - N/A   Mostly Cloudy
4:52 AM 17.1 °F - 9.0 °F 71% 29.93 in 10.0 mi Calm Calm - N/A   Overcast
5:52 AM 21.9 °F 17.2 °F 3.0 °F 44% 29.96 in 10.0 mi Variable 3.5 mph - N/A   Overcast
6:52 AM 18.0 °F - 9.0 °F 68% 29.95 in 10.0 mi Calm Calm - N/A   Overcast
7:52 AM 19.0 °F - 10.9 °F 71% 29.99 in 10.0 mi Calm Calm - N/A   Overcast
8:52 AM 21.9 °F - 6.1 °F 51% 30.01 in 10.0 mi Calm Calm - N/A   Overcast
9:52 AM 24.1 °F - 5.0 °F 44% 30.01 in 10.0 mi Calm Calm - N/A   Mostly Cloudy
10:52 AM 28.9 °F 23.9 °F 6.1 °F 38% 30.02 in 10.0 mi Variable 4.6 mph - N/A   Scattered Clouds
11:52 AM 30.9 °F 24.3 °F 10.0 °F 42% 29.99 in 10.0 mi West 6.9 mph - N/A   Clear
12:52 PM 32.0 °F 24.2 °F 12.0 °F 44% 29.98 in 10.0 mi WSW 9.2 mph 16.1 mph N/A   Clear
1:52 PM 33.1 °F 24.9 °F 12.0 °F 42% 29.99 in 10.0 mi West 10.4 mph - N/A   Scattered Clouds
2:52 PM 33.1 °F 26.9 °F 14.0 °F 46% 30.01 in 9.0 mi WSW 6.9 mph - N/A   Overcast
3:52 PM 33.1 °F 26.9 °F 16.0 °F 50% 30.01 in 10.0 mi WSW 6.9 mph - N/A   Scattered Clouds
4:52 PM 30.9 °F 24.3 °F 16.0 °F 54% 30.04 in 10.0 mi West 6.9 mph - N/A   Clear
5:52 PM 27.0 °F - 15.1 °F 61% 30.07 in 10.0 mi Calm Calm - N/A   Scattered Clouds
6:52 PM 27.0 °F 23.0 °F 16.0 °F 63% 30.09 in 10.0 mi SW 3.5 mph - N/A   Clear
7:52 PM 24.1 °F - 15.1 °F 69% 30.11 in 10.0 mi Calm Calm - N/A   Clear
8:52 PM 21.9 °F - 15.1 °F 75% 30.12 in 10.0 mi Calm Calm - N/A   Clear
9:52 PM 19.9 °F - 14.0 °F 78% 30.14 in 10.0 mi Calm Calm - N/A   Clear
10:52 PM 18.0 °F - 14.0 °F 84% 30.15 in 10.0 mi Calm Calm - N/A   Clear
11:52 PM 12.9 °F - 9.0 °F 84% 30.16 in 10.0 mi Calm Calm - N/A   Clear